Showing default

ALOUETTE 2, 1804

Orbit data source: Space-Track

ALOUETTE 2, 1804 is a payload satellite owned by DRTE (CA) in LEO that was launched on Mon, 29 Nov 1965 UTC via a THOR SLV-2 AGENA B launch vehicle from the Air Force Western Test Range (AFWTR). Payloads include a variety of satellites, spacecraft, and rockets equipped with specific instruments for various scientific and technological missions. These include communications satellites like Starlink; space stations such as the ISS; scientific satellites like the Hubble; Earth observation satellites from companies like Planet Labs, Umbra, and HawkEye 360; GPS; miniature CubeSats for education and research; and military/defense satellites.

Loading next visibility...
ALOUETTE 2 details
Identifier
1804, 1965-098A
Orbit
LEO
Last TLE update11 hours ago
Origin
Flag of CADRTE (CA)
ManufacturerDEHAVT/RCAV
MissionCivil Science
Bus & MotorALOUETTE, Unknown motor
Mass145 kg wet, 145 kg dry
Launch date (UTC)
1965-11-29 (59 years ago)
Launch vehicle
THOR SLV-2 AGENA B
Launch site
Air Force Western Test Range (AFWTR)
Object type
Payload
Rocket body
Debris
Shape & HBREll + 1 Rod, 73 m
Radar Cross Section0.732 m², Medium (>0.1 m² and < 1m²)

Expand to show TLE details & history

TLE from 11 hours ago
0 ALOUETTE 2
1  1804U 65098A   24356.07531288  .00001298  00000-0  43226-3 0  9995
2  1804  79.8035  18.4104 1332864 253.1035  92.0019 12.27544688612200
Epoch: 2024-12-21T01:48Z
Definitive object data (Epoch: 2024-12-21T01:48:27.032Z)
Latitude-0.00004°
Longitude-98.83392°
Altitude1,737.717 km
Speed6.932 km/s
True Right ascension01h 13m 38s
True Declination0° 00' 00"
Sunlit
Object was in daylight at TLE epoch
Visualization TLE readout
Latitude-69.69899°
Longitude-128.15301°
Altitude683.016 km
Speed7.932 km/s
Apparent Right ascension23h 54m 15s
Apparent Declination-55° 36' 21"
Sunlit
Object is in daylight
Visualization observer readout
Local Sidereal Time12:13:11
Azimuth170.264° S
Elevation-74°
Doppler factor1
Orbital elements
Apogee altitude2,614.954 km
Perigee altitude499.59 km
Semi-major axis7,935.409 km
Eccentricity0.1332864
Inclination79.8035°
RAAN18.4104°
Arg. of periapsis253.1035°
True anomaly107.00466°
Mean anomaly92.0019°
Eccentric anomaly99.53318°
Mean motion3.07036 °/min
BSTAR0.00043226
Orbital period117.25 mins
Loading maneuver chart data...
Loading historical data...
Loading historical data...
Loading historical data...
Loading historical data...
Loading historical data...
Loading historical data...
Loading historical data...

ALOUETTE 2 Visibility forecast

Observer location: undefined°, undefined

Span
Click to sort rows by Start time (UTC) header in descending order
Start Az.
Max El. time (UTC)
Max El. Az.
Max El.
End time (UTC)
End Az.
19 mins2024-12-21 14:16:15.589Z340.849° N2024-12-21 14:27:15.589Z280.367° WNW37.393°2024-12-21 14:35:15.589Z203.381° SW
23 mins2024-12-22 01:22:15.589Z150.297° SSE2024-12-22 01:32:15.589Z83.299° E36.456°2024-12-22 01:45:15.589Z20.178° NNE
25 mins2024-12-22 03:20:15.589Z214.609° SW2024-12-22 03:30:15.589Z284.892° WNW40.572°2024-12-22 03:45:15.589Z7.15° NNE
16 mins2024-12-22 05:26:15.589Z281.089° WNW2024-12-22 05:33:15.589Z313.564° NW17.805°2024-12-22 05:42:15.589Z352.396° N
18 mins2024-12-22 11:46:15.589Z1.903° NNE2024-12-22 11:56:15.589Z59.646° ENE29.239°2024-12-22 12:04:15.589Z119.839° SE
|